Needles, CA

3:59 PM PDT on May 23, 2017 (GMT -0700)
Needles

Weather History for KEED - October, 2014

Change the Weather History Date:

Tuesday, October 21, 2014

  Actual Average Record
Temperature  
Mean Temperature 80 °F 73 °F  
Max Temperature 93 °F 85 °F 101 °F (2003)
Min Temperature 70 °F 60 °F 39 °F (1949)
Degree Days  
Heating Degree Days 0    
Cooling Degree Days 16    
Growing Degree Days 30 (Base 50)    
Moisture  
Dew Point 43 °F    
Average Humidity 27    
Maximum Humidity 41    
Minimum Humidity 16    
Precipitation  
Precipitation 0.00 in 0.01 in 0.41 in (2004)
Month to date precipitation 0.17  
Year to date precipitation 3.62  
Sea Level Pressure  
Sea Level Pressure 29.73 in    
Wind  
Wind Speed 4 mph (SW)    
Max Wind Speed 12 mph    
Max Gust Speed -    
Visibility 10 miles    
Events      
T = Trace of Precipitation, MM = Missing Value Source: NWS Daily Summary

Daily Weather History Graph

Daily Weather History Graph

Search for Another Location

Airport or City:

Trip Planner

Search our weather history database for the weather conditions in past years. The results will help you decide how hot, cold, wet, or windy it might be!

Date:

Astronomy

Oct. 21, 2014 Rise Set
Actual Time 6:49 AM PDT 5:56 PM PDT
Civil Twilight 6:23 AM PDT 6:21 PM PDT
Nautical Twilight 5:54 AM PDT 6:51 PM PDT
Astronomical Twilight 5:24 AM PDT 7:20 PM PDT
Moon 4:42 AM PDT (10/21) 4:48 PM PDT (10/21)
Length of Visible Light 11h 58m
Length of Day
11h 06m
Waning Crescent, 4% of the Moon is Illuminated
Oct 21
Waning Crescent
Oct 23
New
Oct 30
First Quarter
Nov 6
Full
Nov 14
Last Quarter

Hourly Weather History & Observations

Time (PDT) Temp. Dew Point Humidity Pressure Visibility Wind Dir Wind Speed Gust Speed Precip Events Conditions
12:56 AM 75.9 °F 44.1 °F 32% 29.73 in 10.0 mi Calm Calm - N/A   Clear
1:56 AM 73.9 °F 45.0 °F 35% 29.73 in 10.0 mi Calm Calm - N/A   Clear
2:56 AM 73.9 °F 44.1 °F 34% 29.73 in 10.0 mi Calm Calm - N/A   Clear
3:56 AM 73.0 °F 45.0 °F 37% 29.73 in 10.0 mi SE 4.6 mph - N/A   Clear
4:56 AM 71.1 °F 45.0 °F 39% 29.74 in 10.0 mi Calm Calm - N/A   Clear
5:56 AM 70.0 °F 45.0 °F 41% 29.75 in 10.0 mi NW 4.6 mph - N/A   Clear
6:56 AM 70.0 °F 45.0 °F 41% 29.77 in 10.0 mi NW 8.1 mph - N/A   Clear
7:56 AM 73.9 °F 46.0 °F 37% 29.79 in 10.0 mi Calm Calm - N/A   Clear
8:56 AM 75.9 °F 46.0 °F 35% 29.79 in 10.0 mi Calm Calm - N/A   Clear
9:56 AM 81.0 °F 46.0 °F 29% 29.79 in 10.0 mi Calm Calm - N/A   Clear
10:56 AM 84.9 °F 45.0 °F 25% 29.77 in 10.0 mi ESE 5.8 mph - N/A   Clear
11:56 AM 89.1 °F 46.0 °F 22% 29.75 in 10.0 mi ESE 10.4 mph - N/A   Clear
12:56 PM 91.9 °F 45.0 °F 20% 29.72 in 10.0 mi SSW 8.1 mph - N/A   Clear
1:56 PM 91.9 °F 45.0 °F 20% 29.69 in 10.0 mi SW 8.1 mph - N/A   Clear
2:56 PM 91.9 °F 43.0 °F 18% 29.68 in 10.0 mi Calm Calm - N/A   Clear
3:56 PM 91.9 °F 41.0 °F 17% 29.67 in 10.0 mi West 8.1 mph - N/A   Clear
4:56 PM 90.0 °F 39.0 °F 17% 29.66 in 10.0 mi SSW 10.4 mph - N/A   Clear
5:56 PM 88.0 °F 37.0 °F 16% 29.68 in 10.0 mi West 11.5 mph - N/A   Clear
6:56 PM 84.9 °F 36.0 °F 17% 29.70 in 10.0 mi WSW 11.5 mph - N/A   Clear
7:56 PM 82.9 °F 37.0 °F 19% 29.71 in 10.0 mi West 10.4 mph - N/A   Clear
8:56 PM 79.0 °F 37.0 °F 22% 29.73 in 10.0 mi West 9.2 mph - N/A   Clear
9:56 PM 77.0 °F 37.0 °F 24% 29.73 in 10.0 mi WSW 8.1 mph - N/A   Clear
10:56 PM 75.9 °F 37.0 °F 24% 29.75 in 10.0 mi SW 3.5 mph - N/A   Clear
11:56 PM 73.9 °F 44.1 °F 34% 29.75 in 10.0 mi South 5.8 mph - N/A   Clear